Location: LC-39B
(28.6273°N, 80.6211°W)
Time: 07:50:31

ISS - Visible Passes

Search period start: 23 October 2016 00:00
Search period end: 02 November 2016 00:00
Orbit: 399 x 408 km, 51.6° (Epoch: 23 October)

Date Brightness Start Highest point End Pass type
(mag) Time Alt. Az. Time Alt. Az. Time Alt. Az.
29 Oct 0.2 10:32:55 10° SE 10:33:39 11° SE 10:34:22 10° ESE visible
31 Oct -1.5 10:21:58 10° SSW 10:24:54 31° SE 10:27:51 10° ENE visible
01 Nov -0.4 09:31:59 13° SE 09:32:34 14° SE 09:34:22 10° E visible
01 Nov -2.4 11:05:50 10° WSW 11:08:47 31° NW 11:11:44 10° NNE visible
